Regional Weather Roundup
Issued by NWS

Home | Current Version | Previous Version | Graphics & Text | Print | Product List | Glossary On
Versions: 1 2 3 4 5 6 7 8 9 10 11 12 13 14 15 16 17 18 19 20 21 22 23 24 25 26 27 28 29 30 31 32 33 34 35 36 37 38 39 40 41 42 43 44 45 46 47 48 49 50
494
ASUS43 KMKX 051821
RWRWI

WISCONSIN REGIONAL WEATHER ROUNDUP
NATIONAL WEATHER SERVICE MILWAUKEE/SULLIVAN WI
1200 PM CST FRI FEB 05 2016

NOTE: "FAIR" INDICATES FEW OR NO CLOUDS BELOW 12,000 FEET WITH NO
SIGNIFICANT WEATHER AND/OR OBSTRUCTIONS TO VISIBILITY.

WIZ001-002-006>008-014>016-023>028-051900-
NORTHWEST WISCONSIN

CITY           SKY/WX    TMP DP  RH WIND       PRES   REMARKS
SUPERIOR ARPT  MOSUNNY   22  10  61 SW8       30.26F WCI  12
6HR MIN TEMP:   0; 6HR MAX TEMP:  22;

ASHLAND        CLOUDY    21  10  62 SW7       30.28F WCI  12
6HR MIN TEMP:  -1; 6HR MAX TEMP:  21;

HAYWARD        PTSUNNY   19   9  65 S8        30.27F WCI   9
6HR MIN TEMP:  -4; 6HR MAX TEMP:  19;

SIREN          CLOUDY    21  10  63 S6        30.28F WCI  13
6HR MIN TEMP:  -4; 6HR MAX TEMP:  21;

CUMBERLAND     MOSUNNY   18  14  86 S6        30.28F WCI   9
RICE LAKE      MOSUNNY   17  14  90 S6        30.32F WCI   8
6HR MIN TEMP:  -4; 6HR MAX TEMP:  17;

CHETEK         MOSUNNY   20  10  63 SW3       30.31F
6HR MIN TEMP:  -5; 6HR MAX TEMP:  20;

LADYSMITH      CLOUDY    16  14  89 CALM      30.31F
6HR MIN TEMP:  -4; 6HR MAX TEMP:  16;

EAU CLAIRE     CLOUDY    17  12  80 CALM      30.32F
6HR MIN TEMP:   2; 6HR MAX TEMP:  17;

MENOMONIE      CLOUDY    21  14  73 CALM      30.34F
6HR MIN TEMP:   1; 6HR MAX TEMP:  21;

NEW RICHMOND   CLOUDY    17  14  88 S9        30.31F WCI   6
6HR MIN TEMP:  -5; 6HR MAX TEMP:  17;

OSCEOLA        CLOUDY    19  14  82 S10       30.33F WCI   7
6HR MIN TEMP:  -6; 6HR MAX TEMP:  19;

$$

WIZ003>005-009-010-017-018-051900-
NORTH CENTRAL WISCONSIN

CITY           SKY/WX    TMP DP  RH WIND       PRES   REMARKS
MANITOWISH WTR CLOUDY    17  13  84 S3        30.23F
6HR MIN TEMP:  -1; 6HR MAX TEMP:  17;

ARBOR VITAE    PTSUNNY   21  10  62 W5        30.24F WCI  15
6HR MIN TEMP:   7; 6HR MAX TEMP:  21;

WOODRUFF       PTSUNNY   21  10  62 W5        30.24F WCI  15
6HR MIN TEMP:   7; 6HR MAX TEMP:  21;

RHINELANDER    CLOUDY    21  10  62 W5        30.25F WCI  15
6HR MIN TEMP:   3; 6HR MAX TEMP:  21;

EAGLE RIVER    MOSUNNY   19   9  67 SW5       30.23F WCI  12
LAND O LAKES   CLOUDY    22  10  59 W5        30.23S WCI  16
6HR MIN TEMP:  -4; 6HR MAX TEMP:  23; 6HR PCP:  0.05;

PHILLIPS       CLOUDY    19   9  65 CALM      30.26F
6HR MIN TEMP:  -4; 6HR MAX TEMP:  19;

TOMAHAWK       CLOUDY    22   8  56 CALM      30.27F
6HR MIN TEMP:  -1; 6HR MAX TEMP:  22;

MEDFORD        CLOUDY    15  12  88 S6        30.27F WCI   7
MERRILL        CLOUDY    21  11  66 W3        30.29F
6HR MIN TEMP:   1; 6HR MAX TEMP:  21;

$$

WIZ029-030-035-036-043>047-051900-
CENTRAL WISCONSIN

CITY           SKY/WX    TMP DP  RH WIND       PRES   REMARKS
WAUSAU         CLOUDY    23  12  62 W6        30.28F WCI  16
6HR MIN TEMP:  11; 6HR MAX TEMP:  23;

MOSINEE        SUNNY     25  12  58 CALM      30.29F
MARSHFIELD     CLOUDY    19  11  70 W3        30.29F
6HR MIN TEMP:   6; 6HR MAX TEMP:  19;

STEVENS POINT  CLOUDY    22  13  66 W8        30.32F WCI  13
6HR MIN TEMP:   7; 6HR MAX TEMP:  22;

WAUPACA        SUNNY     29  16  57 W12       30.34F WCI  19
6HR MIN TEMP:  14; 6HR MAX TEMP:  29;

WAUTOMA        SUNNY     27  14  57 W7        30.34F WCI  20
6HR MIN TEMP:   4; 6HR MAX TEMP:  27;

WISC RAPIDS    SUNNY     23  13  65 SW8       30.34F WCI  14
6HR MIN TEMP:   9; 6HR MAX TEMP:  23;

CAMP DOUGLAS   CLOUDY    25  25 100 W1        30.34F
$$

WIZ011>013-019>022-031-037>040-048>050-051900-
NORTHEAST WISCONSIN

CITY           SKY/WX    TMP DP  RH WIND       PRES   REMARKS
ANTIGO         CLOUDY    15  14  95 CALM      30.26F
6HR MIN TEMP:  -5; 6HR MAX TEMP:  15;

SHAWANO        CLOUDY    27  14  59 W6        30.31F WCI  20
6HR MIN TEMP:  14; 6HR MAX TEMP:  27;

OCONTO         SUNNY     23  13  63 N8        30.32F WCI  14
6HR MIN TEMP:  15; 6HR MAX TEMP:  24;

STURGEON BAY   SUNNY     21  10  63 NW9       30.33F WCI  11
6HR MIN TEMP:  19; 6HR MAX TEMP:  21;

GREEN BAY      SUNNY     24  14  65 W6        30.33F WCI  17
6HR MIN TEMP:  10; 6HR MAX TEMP:  24;

MANITOWOC      SUNNY     27  15  61 NW7       30.33F WCI  19
6HR MIN TEMP:  17; 6HR MAX TEMP:  27;

APPLETON       MOSUNNY   23  12  63 W7        30.30F WCI  15
CLINTONVILLE   SUNNY     27  14  59 W5        30.31F WCI  21
OSHKOSH        SUNNY     24  14  65 VRB6      30.34S WCI  17
6HR MIN TEMP:  15; 6HR MAX TEMP:  24;

$$

WIZ032>034-041-042-053>061-051900-
SOUTHWEST WISCONSIN

CITY           SKY/WX    TMP DP  RH WIND       PRES   REMARKS
LA CROSSE      SUNNY     18  11  74 SE6       30.37F WCI  10
6HR MIN TEMP:   1; 6HR MAX TEMP:  18;

SPARTA         CLOUDY    22  14  71 W8        30.36F WCI  13
6HR MIN TEMP:  -2; 6HR MAX TEMP:  22;

VIROQUA        SUNNY     21  14  75 W7        30.33F WCI  12
6HR MIN TEMP:  11; 6HR MAX TEMP:  21;

BOSCOBEL       SUNNY     26  16  65 SW7       30.38F WCI  18
6HR MIN TEMP:   8; 6HR MAX TEMP:  26;

PRAIRIE DU CHI SUNNY     24  13  63 CALM      30.39F
6HR MIN TEMP:  12; 6HR MAX TEMP:  24; 6HR PCP:  0.01;

PLATTEVILLE    CLOUDY    26  20  78 S3        30.36F
6HR MIN TEMP:  18; 6HR MAX TEMP:  26;

$$

WIZ056-057-062-063-064-067-068-051900-
SOUTH CENTRAL WISCONSIN

CITY           SKY/WX    TMP DP  RH WIND       PRES   REMARKS
REEDSBURG      SUNNY     25  16  69 W5        30.34F WCI  19
6HR MIN TEMP:  13; 6HR MAX TEMP:  25;

BARABOO/DELLS  SUNNY     26  16  67 CALM      30.34F
6HR MIN TEMP:  10; 6HR MAX TEMP:  26;

LONE ROCK      SUNNY     26  17  68 W3        30.37F
6HR MIN TEMP:   8; 6HR MAX TEMP:  26;

MINERAL POINT  SUNNY     28  19  69 W3        30.34F
MADISON        CLOUDY    27  14  58 W6        30.36S WCI  20
6HR MIN TEMP:  21; 6HR MAX TEMP:  27;

MIDDLETON      MOSUNNY   29  16  58 NW5       30.36F WCI  24
6HR MIN TEMP:  18; 6HR MAX TEMP:  29;

WATERTOWN      SUNNY     26  17  68 W6        30.35F WCI  20
6HR MIN TEMP:  20; 6HR MAX TEMP:  27;

MONROE         SUNNY     28  19  69 W3        30.35F
JANESVILLE     SUNNY     28  19  69 W6        30.36F WCI  22
$$

WIZ051-052-058>065-066-070>072-051900-
SOUTHEAST WISCONSIN

CITY           SKY/WX    TMP DP  RH WIND       PRES   REMARKS
MILWAUKEE      PTSUNNY   29  17  61 CALM      30.34F
6HR MIN TEMP:  25; 6HR MAX TEMP:  29;

WAUKESHA       SUNNY     25  18  74 W8        30.35F WCI  16
MILWAUKEE/TIMM SUNNY    N/A N/A N/A W7        30.34F
RACINE         CLOUDY    29  17  61 W8        30.36F WCI  21
6HR MIN TEMP:  25; 6HR MAX TEMP:  29;

BURLINGTON     SUNNY     27  18  67 W6        30.35F WCI  20
6HR MIN TEMP:  19; 6HR MAX TEMP:  27;

KENOSHA        CLOUDY    28  20  71 W10       30.35F WCI  19
6HR MIN TEMP:  25; 6HR MAX TEMP:  29;

FOND DU LAC    FLURRIES  24  14  65 W7        30.35S WCI  16
6HR MIN TEMP:  17; 6HR MAX TEMP:  25; 6HR PCP: TRACE;

SHEBOYGAN      MOSUNNY   25  14  63 NW8       30.33F WCI  16
6HR MIN TEMP:  16; 6HR MAX TEMP:  25;

WEST BEND      SUNNY     28  16  59 W9        30.33F WCI  20
JUNEAU         CLOUDY    23  15  71 SW6       30.35F WCI  16
6HR MIN TEMP:  17; 6HR MAX TEMP:  24;

$$

LSZ147-162-051900-
LAKE SUPERIOR

STATION/POSITION TIME  TEMP    WIND        PRES    WAVE
                       AIR SEA DIR/SP/G            HT/PER
                 (UTC) (F)     (DEG/KT/KT) (MB)    (FT/S)
DEVILS ISLAND    1800   21     220/  5/  7 1026.3F
SAXON HARBOR     1700   20                 1026.1
$$

LMZ867-665-643>646-051900-
LAKE MICHIGAN

STATION/POSITION TIME  TEMP    WIND        PRES    WAVE
                       AIR SEA DIR/SP/G            HT/PER
                 (UTC) (F)     (DEG/KT/KT) (MB)    (FT/S)
CHAMBERS ISLAND  1700   30     280/  3/  7 1026.8S
ALGOMA LAKESHORE 1726          330/ 10/ 12   N/A
KEWAUNEE LAKESHO 1700   23     300/  9/ 11 1026.3S
SHEBOYGAN LAKC1F1C2F2C3F3C4F4C5F5C6F6C7F7C8M1C9M2Ca!



USA.gov is the U.S. government's official web portal to all federal, state and local government web resources and services.